Wind_Speed
57 57 57 57 57 58 58 58 58 59 60 62 63 64 65 65 65 65 66 67 67 68 69 69 70 71 72 73 74 76 77 79 80 82 83 85 86 88 89 91 92 94
60 59 59 59 60 60 60 60 60 61 62 64 65 66 66 66 67 67 68 69 69 70 70 71 72 72 73 75 76 77 79 80 82 84 85 86 88 89 91 93 94 95
61 61 61 61 62 62 62 62 62 63 65 66 66 67 68 68 69 70 71 71 71 72 72 72 73 74 76 77 78 79 80 82 84 86 87 88 90 91 93 94 95 97
63 63 63 63 63 64 64 64 64 66 66 67 68 69 69 70 71 71 72 72 73 73 74 74 75 76 78 79 79 81 83 85 86 88 89 90 92 94 95 96 98 99
65 64 64 65 65 65 65 65 66 67 68 69 69 70 70 71 72 72 73 73 74 75 76 76 77 78 79 80 81 83 85 86 88 90 91 93 95 96 97 99 100 102
66 66 66 66 66 66 66 67 68 69 69 70 70 71 72 72 73 73 74 75 76 76 77 78 79 80 81 82 84 85 87 88 90 92 94 95 97 98 99 101 102 104
68 68 67 67 67 68 68 69 70 70 71 71 71 72 73 73 74 75 76 76 77 78 78 79 80 82 83 85 86 87 89 91 93 94 95 97 98 99 101 102 103 105
70 69 69 69 69 69 69 70 71 72 72 72 73 74 74 75 76 76 77 77 78 79 80 81 82 84 86 87 88 89 91 93 94 95 96 98 99 100 102 103 104 105
72 71 71 70 70 71 71 72 73 73 73 73 74 75 75 76 77 77 78 78 79 80 81 83 85 87 88 89 90 91 93 95 96 96 97 98 100 101 102 104 105 106
73 73 72 72 72 73 73 74 74 74 74 75 75 76 76 77 77 78 79 79 80 81 83 85 87 88 89 90 91 93 94 96 96 97 98 99 100 101 102 103 105 106
75 75 74 74 75 75 75 75 75 75 76 76 76 77 77 78 78 79 80 81 82 83 85 86 88 89 90 91 93 94 95 96 96 97 98 99 100 101 102 103 105 107
78 77 77 76 76 76 76 77 77 77 77 77 77 78 78 79 80 81 82 82 83 85 86 87 89 90 91 92 94 95 95 96 97 98 99 100 101 102 102 104 106 108
80 79 78 78 78 78 78 78 78 78 79 79 79 79 80 81 81 82 83 84 84 85 86 88 90 91 92 93 94 95 96 97 98 98 99 101 101 102 103 106 108 109
83 82 81 80 80 80 80 80 80 80 80 80 80 81 81 82 83 84 84 84 85 86 88 90 91 92 94 94 95 96 96 98 99 99 100 102 102 102 104 106 108 109
86 84 84 84 83 83 83 83 83 83 83 83 83 83 83 84 85 85 85 86 87 88 90 92 93 94 95 95 96 96 97 98 99 100 101 102 102 103 105 107 108 108
88 87 87 86 86 86 86 86 86 86 86 86 86 86 86 86 86 86 86 87 88 89 91 93 94 95 96 97 97 98 98 99 100 101 102 102 103 104 105 106 106 105
91 91 90 89 89 89 89 89 89 88 88 88 88 88 87 87 88 88 88 88 89 91 92 94 95 96 97 98 98 99 99 100 101 101 101 102 103 104 105 104 103 102
95 94 93 92 92 91 91 91 90 90 90 90 90 89 89 89 89 89 89 90 91 92 93 95 96 97 98 99 99 100 100 100 101 101 101 101 102 103 103 102 101 100
97 96 95 94 94 93 93 92 91 91 91 91 91 90 90 90 91 91 91 91 92 93 94 95 97 98 98 99 100 100 100 100 101 100 100 101 102 102 101 99 99 98
99 98 97 96 95 95 94 94 93 93 93 92 92 91 91 92 92 92 92 92 93 93 94 96 97 98 99 100 100 100 100 99 99 99 100 101 101 100 98 98 97 96
100 99 98 98 97 97 96 96 95 95 94 94 94 93 93 93 94 94 94 93 93 94 94 96 97 98 99 100 100 99 99 98 98 98 99 99 99 97 96 96 95 92
102 101 101 100 100 99 99 98 98 98 97 97 96 95 95 95 95 95 94 94 94 94 95 96 97 98 98 98 99 99 98 97 97 97 97 97 96 94 94 94 91 88
103 103 103 103 102 102 101 101 101 100 99 98 97 96 96 96 96 95 95 95 94 94 95 96 97 98 97 96 97 98 98 97 96 96 96 94 92 92 92 90 87 85
105 105 105 105 104 103 103 102 101 100 99 98 98 97 96 96 96 96 95 95 95 95 95 96 97 97 96 95 95 96 97 97 96 95 93 91 90 91 91 88 86 85
108 108 107 106 105 104 103 102 101 100 99 98 98 97 96 96 96 96 96 96 95 95 95 96 96 95 95 94 94 95 95 95 94 93 90 89 90 90 89 87 86 84
110 109 108 107 106 104 103 102 101 100 100 99 99 98 97 97 97 97 96 96 95 94 95 95 95 94 94 94 94 94 94 93 91 89 88 88 89 87 86 86 86 85
Wind_Direction
278 279 281 282 284 285 287 288 289 290 290 291 293 294 294 295 296 296 297 299 299 300 301 301 302 302 303 304 304 305 306 306 307 308 309 310 310 310 311 312 313 314
277 279 281 282 283 284 286 287 288 288 288 289 291 292 293 294 294 295 297 297 298 299 300 300 301 301 302 303 303 304 305 306 307 308 309 310 309 310 311 311 312 313
276 278 280 281 282 283 285 286 286 286 287 288 290 290 291 292 293 295 296 297 297 298 299 300 300 301 301 302 303 304 305 306 306 307 309 309 309 310 310 311 312 313
276 277 278 279 280 282 283 284 284 284 286 287 288 289 290 291 292 294 295 296 297 298 299 299 300 301 301 302 303 304 305 306 307 307 308 309 309 310 310 311 312 313
275 276 277 278 279 280 281 282 282 283 285 286 287 288 289 290 292 293 294 295 297 298 299 299 300 301 301 302 303 304 305 306 307 307 308 309 309 310 310 311 312 313
274 275 276 277 278 279 280 281 281 283 284 285 287 288 288 290 291 292 294 295 297 297 298 299 300 301 301 302 303 304 305 306 307 308 308 309 310 310 311 312 313 314
273 274 275 276 277 279 280 280 281 283 284 285 286 287 288 290 291 292 294 295 296 297 298 299 300 300 301 302 304 304 305 306 307 308 309 309 310 311 312 313 314 314
273 274 275 276 278 279 280 280 281 283 284 285 286 287 288 290 291 293 294 295 296 297 298 299 299 300 301 303 304 305 306 307 307 308 309 310 310 311 312 313 313 314
273 274 275 276 277 278 279 280 281 282 284 285 286 287 289 290 292 293 294 295 296 297 298 299 300 301 302 303 304 305 306 307 307 308 309 310 311 311 312 312 313 314
272 274 275 276 277 277 278 279 281 282 283 285 286 287 289 291 292 293 294 295 296 297 298 299 300 301 302 303 304 305 306 306 307 308 309 310 310 311 311 312 312 313
273 274 274 275 276 277 278 279 280 282 283 284 286 288 289 290 291 292 293 295 296 297 299 300 300 301 302 303 304 305 305 306 307 307 308 309 310 310 310 311 312 313
272 273 273 274 275 276 277 278 280 281 283 284 286 287 288 289 291 292 293 295 296 298 299 299 300 301 301 302 303 304 305 305 306 307 307 308 309 309 309 310 311 312
273 273 274 274 275 276 277 279 280 281 282 284 285 286 288 289 290 292 293 295 296 297 298 298 299 300 301 302 302 303 304 304 305 306 307 307 308 308 309 310 311 312
274 275 275 275 276 277 278 279 280 281 282 283 284 286 287 289 290 292 293 294 296 296 297 298 298 299 300 301 301 302 303 304 305 305 306 306 307 307 308 310 311 312
273 274 274 275 276 276 277 278 279 280 281 283 284 286 287 289 290 291 293 294 295 296 296 297 298 298 299 300 300 301 302 303 304 304 305 305 306 307 308 310 311 312
272 272 273 274 275 275 276 277 279 280 281 282 284 285 287 289 290 291 292 293 294 295 295 296 297 297 298 299 300 301 302 302 303 303 304 304 305 307 308 309 310 312
272 272 273 274 275 276 277 278 279 280 281 283 284 285 287 289 290 291 291 292 293 294 294 295 296 296 297 298 299 300 301 301 302 302 303 304 305 306 307 309 310 312
273 274 275 276 276 277 278 279 280 281 282 283 284 286 287 288 289 289 290 291 292 292 293 294 294 295 296 297 298 299 300 300 300 301 302 303 305 306 307 308 310 312
273 274 275 276 276 277 278 279 280 281 282 283 284 285 286 287 287 288 288 289 290 291 292 293 293 294 295 296 297 298 299 299 300 301 302 303 304 305 307 309 311 313
274 274 274 275 276 276 277 278 279 280 281 282 283 284 284 285 285 285 286 288 289 290 291 291 292 293 294 295 296 297 298 298 299 300 302 303 304 305 308 310 312 315
272 272 272 273 273 274 275 276 276 277 279 280 281 282 282 283 283 284 285 286 287 288 289 290 290 291 292 294 295 296 296 297 298 300 301 302 304 306 309 312 315 318
269 270 270 271 271 272 273 274 275 276 277 278 279 280 281 282 282 283 284 285 286 287 287 288 289 290 292 293 294 295 296 297 298 299 301 302 304 307 310 313 318 322
268 268 269 270 270 271 272 273 274 275 276 277 278 280 280 281 281 282 283 284 285 285 286 287 288 290 291 292 293 294 295 296 297 298 300 301 304 306 310 314 320 323
267 267 268 269 270 271 272 272 273 274 275 276 277 279 279 280 280 281 282 283 284 284 285 286 288 289 290 291 292 293 294 296 297 298 299 301 303 306 310 316 320 322
266 267 268 269 270 271 271 272 272 273 274 275 277 278 278 279 279 280 281 282 283 284 285 286 287 288 289 290 291 292 293 294 296 296 298 301 304 308 313 318 321 321
265 266 267 268 269 270 270 271 272 272 274 275 276 277 278 279 279 280 281 282 282 283 284 286 287 287 288 289 290 291 292 293 294 295 298 301 305 310 315 319 320 320
Height
10802 10802 10802 10801 10800 10798 10798 10797 10795 10793 10791 10789 10787 10785 10784 10783 10781 10780 10778 10775 10774 10771 10768 10766 10763 10760 10757 10754 10751 10748 10744 10740 10736 10733 10731 10728 10722 10718 10714 10709 10706 10702
10796 10796 10796 10795 10794 10792 10792 10791 10790 10787 10784 10782 10781 10779 10777 10776 10774 10773 10771 10769 10767 10764 10762 10760 10757 10754 10751 10748 10745 10742 10738 10733 10729 10726 10724 10720 10714 10710 10706 10702 10699 10695
10791 10791 10791 10789 10788 10786 10786 10785 10783 10780 10778 10777 10775 10773 10771 10770 10767 10766 10764 10762 10760 10757 10755 10753 10750 10747 10744 10741 10738 10735 10731 10726 10722 10719 10717 10713 10706 10703 10699 10694 10691 10687
10785 10785 10784 10783 10781 10780 10780 10779 10776 10773 10772 10770 10768 10767 10765 10763 10761 10759 10756 10755 10753 10750 10748 10746 10743 10740 10736 10733 10731 10728 10723 10719 10715 10711 10709 10704 10698 10694 10690 10685 10682 10678
10778 10777 10777 10776 10775 10774 10773 10772 10769 10767 10766 10764 10762 10761 10758 10756 10755 10752 10750 10748 10746 10743 10741 10738 10735 10732 10729 10726 10723 10720 10716 10712 10707 10703 10700 10695 10689 10685 10680 10676 10673 10669
10770 10770 10770 10769 10768 10767 10766 10764 10761 10760 10759 10757 10756 10754 10751 10750 10748 10745 10744 10742 10739 10737 10733 10730 10728 10724 10721 10718 10716 10712 10708 10704 10699 10694 10690 10685 10680 10675 10670 10665 10662 10658
10762 10762 10762 10762 10761 10760 10758 10756 10754 10753 10752 10750 10749 10746 10744 10743 10741 10739 10737 10735 10732 10729 10726 10723 10720 10716 10713 10710 10707 10703 10699 10695 10690 10685 10681 10675 10670 10666 10660 10656 10652 10649
10755 10755 10754 10754 10753 10752 10750 10748 10746 10745 10744 10743 10741 10738 10737 10736 10734 10732 10730 10728 10725 10722 10718 10715 10712 10708 10705 10702 10699 10694 10690 10686 10681 10677 10672 10666 10661 10656 10651 10647 10643 10640
10748 10747 10747 10747 10746 10744 10742 10740 10738 10737 10736 10736 10733 10731 10730 10729 10726 10725 10722 10720 10718 10714 10711 10708 10704 10700 10697 10693 10690 10686 10682 10677 10672 10668 10663 10658 10653 10648 10643 10638 10633 10629
10741 10741 10740 10739 10737 10735 10734 10732 10730 10730 10729 10728 10726 10724 10723 10721 10719 10717 10714 10712 10710 10706 10703 10699 10695 10691 10688 10685 10681 10677 10673 10669 10664 10660 10655 10650 10646 10641 10635 10630 10625 10621
10734 10734 10733 10731 10729 10728 10726 10724 10723 10722 10721 10720 10719 10717 10715 10713 10710 10708 10706 10704 10701 10698 10695 10691 10687 10683 10680 10676 10673 10669 10665 10660 10656 10652 10647 10643 10638 10633 10628 10623 10618 10613
10725 10725 10725 10724 10722 10720 10719 10717 10716 10715 10713 10712 10711 10709 10707 10705 10703 10701 10698 10697 10694 10691 10687 10683 10679 10676 10672 10668 10665 10661 10657 10652 10648 10644 10639 10635 10630 10625 10619 10614 10610 10605
10715 10716 10716 10715 10714 10712 10711 10709 10708 10706 10705 10704 10703 10702 10700 10697 10695 10693 10691 10690 10686 10683 10680 10675 10672 10668 10664 10661 10657 10653 10649 10644 10640 10636 10631 10626 10622 10617 10612 10606 10601 10596
10705 10706 10707 10706 10704 10703 10702 10700 10699 10698 10697 10696 10695 10694 10692 10690 10688 10686 10684 10682 10679 10676 10672 10667 10664 10660 10656 10653 10649 10645 10641 10636 10632 10627 10622 10618 10613 10608 10603 10598 10592 10587
10698 10698 10697 10697 10696 10695 10693 10692 10691 10690 10689 10689 10687 10686 10684 10682 10680 10678 10676 10674 10671 10668 10664 10659 10656 10652 10648 10644 10640 10636 10633 10628 10624 10619 10614 10609 10605 10600 10595 10589 10584 10579
10689 10688 10688 10688 10687 10686 10685 10684 10683 10682 10682 10681 10679 10678 10676 10674 10672 10670 10668 10666 10664 10660 10656 10651 10647 10643 10639 10636 10632 10628 10624 10620 10616 10611 10606 10602 10597 10593 10587 10582 10577 10571
10678 10677 10678 10678 10678 10677 10676 10675 10675 10674 10673 10672 10671 10670 10668 10666 10663 10661 10660 10658 10656 10652 10648 10643 10639 10635 10631 10627 10623 10620 10616 10612 10608 10603 10598 10594 10589 10585 10579 10574 10569 10564
10667 10668 10669 10668 10668 10667 10666 10666 10665 10665 10664 10662 10661 10661 10659 10657 10654 10652 10651 10650 10647 10644 10640 10635 10630 10626 10623 10618 10614 10611 10608 10604 10599 10594 10590 10586 10581 10576 10571 10567 10562 10556
10658 10659 10659 10658 10657 10657 10656 10656 10656 10655 10654 10653 10652 10652 10650 10648 10645 10644 10643 10642 10639 10636 10632 10627 10622 10618 10614 10610 10606 10603 10600 10595 10590 10585 10581 10577 10573 10569 10564 10559 10554 10548
10649 10650 10649 10648 10648 10646 10646 10646 10646 10646 10645 10644 10644 10643 10641 10639 10636 10635 10634 10633 10631 10628 10624 10619 10613 10609 10605 10601 10597 10595 10591 10586 10582 10577 10573 10568 10564 10560 10556 10550 10546 10540
10639 10639 10639 10638 10637 10637 10637 10637 10637 10637 10636 10635 10635 10634 10632 10630 10627 10625 10625 10624 10622 10619 10615 10610 10605 10601 10597 10592 10588 10585 10581 10578 10574 10569 10565 10560 10555 10551 10547 10542 10536 10531
10628 10628 10628 10627 10627 10627 10627 10627 10627 10627 10627 10626 10625 10624 10622 10620 10617 10616 10615 10614 10612 10610 10606 10601 10597 10592 10589 10585 10579 10575 10572 10569 10566 10561 10557 10553 10548 10544 10539 10534 10529 10524
10616 10615 10615 10615 10616 10617 10617 10617 10618 10617 10617 10616 10616 10615 10612 10610 10607 10606 10606 10605 10603 10600 10597 10592 10588 10583 10580 10577 10572 10566 10562 10559 10557 10554 10550 10546 10541 10537 10533 10528 10523 10518
10605 10603 10602 10603 10605 10607 10607 10607 10607 10607 10607 10607 10606 10604 10602 10599 10597 10596 10595 10595 10593 10590 10586 10582 10578 10574 10571 10569 10565 10559 10554 10550 10547 10545 10542 10538 10534 10529 10524 10520 10516 10511
10592 10590 10590 10591 10593 10595 10595 10596 10596 10596 10596 10595 10594 10592 10590 10588 10587 10586 10585 10584 10583 10580 10576 10572 10569 10566 10562 10559 10556 10552 10548 10543 10539 10536 10533 10530 10526 10521 10515 10511 10507 10504
10579 10578 10578 10579 10580 10582 10583 10584 10585 10585 10584 10583 10581 10580 10579 10577 10576 10575 10574 10573 10572 10569 10566 10562 10559 10557 10553 10550 10547 10544 10541 10537 10532 10529 10526 10522 10518 10513 10508 10504 10500 10497